星链-35792(STARLINK-35792)

导读

STARLINK-35792是美国于2025年12月14日发射的星链卫星,星链是SpaceX打造的低轨卫星互联网星座计划,旨在为全球提供高速低延迟宽带网络服务。该卫星属于星链大规模组网中的一员,入轨后将参与星座部署,扩展全球卫星互联网的覆盖范围与服务能力,推动太空互联网基础设施的建设。

Basic Information
目录编号:
67092
目录名称:
STARLINK-35792
国际标识:
2025-298T
轨道中心:
EARTH
卫星名称:
星链-35792
卫星全名:
星链-35792(STARLINK-35792)
卫星状态:
在轨 (已飞行265 天)
发射日期:
2025-12-14 UTC
国别 :
美国 (US)
星等 :
--
Orbit Information
数据来源 国际轨道数据 AOE轨道数据
星历时间 2026-09-05T14:23:02+0800
9小时前
查看轨道信息
2026-09-04T03:00:00+0800
1天前
查看轨道信息
半长轴 6950.173km 6950.201km
偏心率 0.0003654 0.0003661
轨道倾角 70.000° 69.999°
近地点辐角 268.082° 272.422°
升交点赤经 281.782° 285.499°
平近点角 91.992° 57.367°
近地点 569.496km 569.519km
远地点 574.576km 574.609km
周期 96.107分钟 96.107分钟
每日圈数 14.983367 14.983276
Detailed Information
固有亮度:
5
最大亮度:
2.5
卫星平台:
Starlink V1.0
覆盖范围:
全球
运营商:
太空探索技术公司
运营商所在国:
美国
制造商(研发单位):
太空探索技术公司
制造商所在国:
美国
使用方式:
暂无
Satellite Introduction
Starlink 计划是 SpaceX 推出的全球卫星互联网项目,通过发射低轨道卫星,为全球尤其是偏远地区提供高速、低延迟的互联网服务。自 2019 年起,Starlink 已部署数千颗卫星,旨在缩小全球数字鸿沟,推动互联网普及。该项目还为军事、航空等行业提供通信支持,带来广泛经济效益。
2D Orbit Map
3D Orbit Map
Orbit Altitude Analysis Chart
Orbit Inclination Analysis Chart
Orbit Comprehensive Analysis Chart
View Comprehensive Chart
Conjunction Data List
Event ID Objects TCA Miss Dist (km) Collision Risk Probability Collision Risk Index (CRI) Action
CDM_260905-113804-362006-709224
PSLV R/B (43620)
2026-09-05T
11:38:46+0000
2.487 km
极远距离
1.730757E-6 低风险 0.4